Regional Weather Roundup
Issued by NWS

Home | Current Version | Previous Version | Text Only | Print | Product List | Glossary Off
Versions: 1 2 3 4 5 6 7 8 9 10 11 12 13 14 15 16 17 18 19 20 21 22 23 24 25 26 27 28 29 30 31 32 33 34 35 36 37 38 39 40 41 42 43 44 45 46 47 48 49 50

000
ASUS43 KLSX 021859
RWRMO

WEATHER SUMMARY FOR MISSOURI
NATIONAL WEATHER SERVICE SPRINGFIELD MO
200 PM CDT TUE SEP 02 2014

NOTE: "FAIR" INDICATES FEW OR NO CLOUDS BELOW 12,000 FEET WITH NO
       SIGNIFICANT WEATHER AND/OR OBSTRUCTIONS TO VISIBILITY.
       CURRENT SKY AND/OR WEATHER CONDITIONS ARE NOT AVAILABLE FOR
       CHILLICOTHE AND FARMINGTON.

MOZ001>031-035>038-043-044-053-054-022000-
...NORTHERN AND WESTERN MISSOURI...

CITY           SKY/WX    TMP DP  RH WIND       PRES   REMARKS
KANSAS CTY INT PTSUNNY   79  67  66 VRB5      30.01F
KANSAS C DTWN  MOSUNNY   82  68  62 SW7       30.00F
LEE`S SUMMIT   PTSUNNY   78  67  68 SW7       30.03S
ST JOSEPH      SUNNY     81  62  52 CALM      30.00S
KIRKSVILLE     MOSUNNY   81  64  56 W10       30.00S

$$
MOZ066>068-077>081-088>096-101>105-022000-
...SOUTHWEST MISSOURI...

CITY           SKY/WX    TMP DP  RH WIND       PRES   REMARKS
SPRINGFIELD    CLOUDY    73  65  75 W8        30.04F
JOPLIN         CLOUDY    74  67  78 SW9       30.04F

$$
MOZ032>034-039>042-045>050-055>058-069>072-022000-
...CENTRAL MISSOURI...

CITY           SKY/WX    TMP DP  RH WIND       PRES   REMARKS
COLUMBIA       CLOUDY    78  70  76 SW9       30.02F
JEFFERSON CITY CLOUDY    76  68  76 W8        30.02S
ROLLA          CLOUDY    73  66  78 W10       30.02F
SEDALIA        CLOUDY    75  70  84 SW12      30.03F
OSAGE BEACH    CLOUDY    77  64  65 W10       30.03F

$$
MOZ051-052-059>065-022000-
...EAST CENTRAL MISSOURI...

CITY           SKY/WX    TMP DP  RH WIND       PRES   REMARKS
ST LOUIS INTL  CLOUDY    81  69  67 W9G17     30.00R
SPIRIT OF STL  CLOUDY    79  70  74 W10       29.99S
ST CHARLES     CLOUDY    79  68  69 W8        29.99R

$$
MOZ072>076-082>087-097>100-106>115-022000-
...SOUTH CENTRAL AND SOUTHEAST MISSOURI...

CITY           SKY/WX    TMP DP  RH WIND       PRES   REMARKS
CAPE GIRARDEAU CLOUDY    81  69  67 W6        30.00R
FARMINGTON     CLOUDY    77  66  69 W6        30.05S
POPLAR BLUFF   CLOUDY    82  65  56 W9        29.99F
WEST PLAINS    CLOUDY    72  65  78 NW12      30.04F

$$



USA.gov is the U.S. government's official web portal to all federal, state and local government web resources and services.